Flag for Japan Weather past 2 weeks in Minamisōma, Japan

Now
46 °F

Passing clouds.


Feels Like: 37 °F
Forecast: 33 / 47 °F
Wind: 31 mph from West

Location: Sendai Airport

Current Time: Mar 4, 2015 at 8:56:19 PM

Latest Report: Mar 4, 2015 at 8:00 PM


Visibility: N/A

Pressure: 29.68 "Hg

Humidity: 53%

Dew point: 30 °F

Location of MinamisōmaLocation

Historic Weather in Minamisōma — Graph

°F

Minamisōma temperature yesterday

Maximum temperature yesterday: 43 °F (at 1:00 PM)
Minimum temperature yesterday: 30 °F (at 7:00 AM)
Average temperature yesterday: 40 °F

Past Weeks' High & Low Weather Summary

 TemperatureHumidityPressure
High61 °F (Feb 23, 1:00 PM)100% (Feb 18, 7:00 AM)30.39 "Hg (Feb 18, 7:00 AM)
Low30 °F (Feb 21, 6:00 AM)37% (Feb 25, 3:00 PM)29.53 "Hg (Mar 4, 1:00 PM)
Average41 °F70%29.98 "Hg
* Reported Feb 17 8:00 PM — Mar 4 8:00 PM, Minamisōma, Weather by CustomWeather, © 2015

Note: Actual official high and low records may vary slightly from our data, if they occured in-between our weather recording intervals... More about our weather records

Advertising

Minamisōma weather history for previous 24 hours

 ConditionsComfort  
Time TempWeatherWind HumidityBarometerVisibility
8:00 PM
Wed, Mar 4
46 °FPassing clouds.31 mph53%29.68 "HgN/A
7:00 PM46 °FPassing clouds.30 mph57%29.65 "HgN/A
6:00 PM48 °FPassing clouds.29 mph54%29.65 "HgN/A
5:00 PM50 °FPassing clouds.21 mph54%29.62 "HgN/A
4:00 PM52 °FPassing clouds.26 mph54%29.56 "HgN/A
3:00 PM55 °FPassing clouds.37 mph47%29.53 "HgN/A
2:02 PM55 °FScattered clouds.21 mph44%29.53 "HgN/A
2:00 PM55 °FScattered clouds.21 mph44%29.53 "HgN/A
1:00 PM50 °FScattered clouds.8 mph76%29.53 "HgN/A
12:00 PM46 °FScattered clouds.6 mph82%29.56 "HgN/A
11:00 AM45 °FBroken clouds.7 mph87%29.56 "HgN/A
10:00 AM39 °FSprinkles. Broken clouds.8 mph100%29.59 "HgN/A
9:00 AM37 °FLight rain. Broken clouds.10 mph100%29.62 "Hg5 mi
8:00 AM36 °FLight rain. Broken clouds.8 mph100%29.65 "Hg4 mi
7:00 AM36 °FLight rain. Fog.9 mph100%29.68 "Hg3 mi
6:00 AM36 °FLight rain. Partly cloudy.7 mph100%29.71 "Hg4 mi
9:00 PM
Tue, Mar 3
41 °FLight rain. Partly cloudy.10 mph76%30.07 "HgN/A
8:00 PM41 °FLight rain. Passing clouds.12 mph76%30.07 "HgN/A
Weather by CustomWeather, © 2015

See weather overviewHow to use our weather pages